TimeEDT,TemperatureF,Dew PointF,Humidity,Sea Level PressureIn,VisibilityMPH,Wind Direction,Wind SpeedMPH,Gust SpeedMPH,PrecipitationIn,Events,Conditions,WindDirDegrees,DateUTC
12:54 AM,46.0,44.1,93,30.21,-9999.0,Calm,Calm,-,N/A,,Unknown,0,2013-09-19 04:54:00
1:54 AM,45.0,43.0,93,30.21,-9999.0,Calm,Calm,-,N/A,,Unknown,0,2013-09-19 05:54:00
2:54 AM,44.1,42.1,93,30.19,-9999.0,Calm,Calm,-,N/A,,Unknown,0,2013-09-19 06:54:00
3:54 AM,43.0,41.0,93,30.19,-9999.0,Calm,Calm,-,N/A,,Unknown,0,2013-09-19 07:54:00
4:54 AM,43.0,41.0,93,30.19,-9999.0,Calm,Calm,-,N/A,,Unknown,0,2013-09-19 08:54:00
5:54 AM,41.0,39.0,93,30.19,-9999.0,Calm,Calm,-,N/A,,Unknown,0,2013-09-19 09:54:00
6:54 AM,41.0,39.0,93,30.21,-9999.0,Calm,Calm,-,N/A,,Unknown,0,2013-09-19 10:54:00
7:54 AM,43.0,43.0,100,30.21,-9999.0,Calm,Calm,-,N/A,,Unknown,0,2013-09-19 11:54:00
8:54 AM,52.0,48.9,89,30.20,-9999.0,Calm,Calm,-,N/A,,Unknown,0,2013-09-19 12:54:00
9:54 AM,57.9,48.9,72,30.20,-9999.0,Calm,Calm,-,N/A,,Unknown,0,2013-09-19 13:54:00
10:54 AM,64.9,48.9,56,30.19,-9999.0,Calm,Calm,-,N/A,,Unknown,0,2013-09-19 14:54:00
11:54 AM,69.1,48.9,49,30.17,-9999.0,Calm,Calm,-,N/A,,Unknown,0,2013-09-19 15:54:00
12:54 PM,71.1,46.9,42,30.16,-9999.0,Calm,Calm,-,N/A,,Unknown,0,2013-09-19 16:54:00
1:54 PM,73.0,46.0,38,30.13,-9999.0,Variable,3.5,-,N/A,,Unknown,0,2013-09-19 17:54:00
2:54 PM,73.0,46.9,39,30.11,-9999.0,Variable,4.6,-,N/A,,Unknown,0,2013-09-19 18:54:00
3:54 PM,73.0,46.9,39,30.09,-9999.0,SSE,3.5,-,N/A,,Unknown,160,2013-09-19 19:54:00
4:54 PM,73.9,48.0,40,30.09,-9999.0,Variable,4.6,-,N/A,,Unknown,0,2013-09-19 20:54:00
5:54 PM,72.0,48.0,43,30.09,-9999.0,WSW,4.6,-,N/A,,Unknown,240,2013-09-19 21:54:00
6:54 PM,62.1,53.1,72,30.10,-9999.0,Calm,Calm,-,N/A,,Unknown,0,2013-09-19 22:54:00
7:54 PM,55.9,52.0,87,30.12,-9999.0,Calm,Calm,-,N/A,,Unknown,0,2013-09-19 23:54:00
8:54 PM,54.0,52.0,93,30.13,-9999.0,Calm,Calm,-,N/A,,Unknown,0,2013-09-20 00:54:00
9:54 PM,53.1,50.0,89,30.11,-9999.0,Calm,Calm,-,N/A,,Unknown,0,2013-09-20 01:54:00
10:54 PM,52.0,50.0,93,30.10,-9999.0,Calm,Calm,-,N/A,,Unknown,0,2013-09-20 02:54:00
11:54 PM,50.0,48.0,93,30.09,-9999.0,Calm,Calm,-,N/A,,Unknown,0,2013-09-20 03:54:00